Flag for Cote d'Ivoire (Ivory Coast) Weather past 2 weeks in Abidjan, Cote d'Ivoire (Ivory Coast)

Now
77 °F

Passing clouds.


Feels Like: 78 °F
Forecast: 75 / 80 °F
Wind: 8 mph from Southwest

Location: Abidjan Airport

Current Time: Jul 23, 2014 at 2:18:06 AM

Latest Report: Jul 23, 2014 at 2:00 AM


Visibility: N/A

Pressure: 29.95 "Hg

Humidity: 89%

Dew point: 73 °F

Location of AbidjanLocation

Historic Weather in Abidjan — Graph

°F

Abidjan temperature yesterday

Maximum temperature yesterday: 82 °F (at 11:30 AM)
Minimum temperature yesterday: 75 °F (at 12:00 AM)
Average temperature yesterday: 79 °F

Past Weeks' High & Low Weather Summary

 TemperatureHumidityPressure
High84 °F (Jul 10, 1:00 PM)100% (Jul 16, 11:30 AM)30.04 "Hg (Jul 16, 11:30 AM)
Low70 °F (Jul 16, 11:30 AM)70% (Jul 8, 3:30 PM)29.86 "Hg (Jul 13, 5:00 PM)
Average79 °F86%29.96 "Hg
* Reported Jul 8 1:00 AM — Jul 23 1:00 AM, Abidjan, Weather by CustomWeather, © 2014

Note: Actual official high and low records may vary slightly from our data, if they occured in-between our weather recording intervals... More about our weather records

Advertising

Abidjan weather history for previous 24 hours

 ConditionsComfort  
Time TempWeatherWind HumidityBarometerVisibility
1:00 AM
Jul 23
77 °FPassing clouds.7 mph89%29.98 "HgN/A
12:30 AM77 °FPassing clouds.7 mph89%29.98 "HgN/A
12:00 AM77 °FPassing clouds.7 mph89%30.01 "HgN/A
5:00 PM
Jul 22
81 °FScattered clouds.12 mph79%29.92 "HgN/A
4:30 PM81 °FScattered clouds.12 mph79%29.92 "HgN/A
4:00 PM82 °FScattered clouds.10 mph74%29.95 "HgN/A
3:30 PM81 °FScattered clouds.12 mph79%29.95 "HgN/A
3:00 PM82 °FScattered clouds.12 mph74%29.95 "HgN/A
2:30 PM82 °FBroken clouds.13 mph74%29.95 "HgN/A
2:00 PM82 °FScattered clouds.13 mph79%29.95 "HgN/A
1:30 PM82 °FBroken clouds.13 mph74%29.98 "HgN/A
1:00 PM82 °FScattered clouds.12 mph74%30.01 "HgN/A
12:30 PM82 °FScattered clouds.12 mph79%30.01 "HgN/A
12:00 PM82 °FScattered clouds.9 mph79%30.01 "Hg5 mi
11:30 AM82 °FScattered clouds.12 mph74%30.01 "Hg5 mi
11:00 AM81 °FScattered clouds.12 mph84%30.01 "Hg5 mi
10:30 AM81 °FScattered clouds.10 mph84%30.04 "Hg5 mi
10:00 AM81 °FScattered clouds.10 mph79%30.04 "Hg5 mi
9:30 AM81 °FScattered clouds.9 mph84%30.04 "Hg5 mi
9:00 AM79 °FBroken clouds.9 mph89%30.04 "Hg5 mi
8:30 AM77 °FBroken clouds.6 mph94%30.01 "Hg5 mi
8:00 AM77 °FBroken clouds.6 mph94%30.01 "Hg5 mi
7:30 AM77 °FBroken clouds.7 mph94%30.01 "Hg5 mi
7:00 AM77 °FBroken clouds.8 mph89%29.98 "Hg5 mi
6:30 AM77 °FMostly cloudy.7 mph89%29.98 "Hg5 mi
6:00 AM77 °FPartly cloudy.6 mph94%29.98 "Hg5 mi
5:30 AM77 °FPartly cloudy.6 mph94%29.98 "Hg5 mi
5:00 AM77 °FPassing clouds.5 mph94%29.98 "Hg5 mi
4:30 AM75 °FPassing clouds.5 mph94%29.95 "Hg5 mi
4:00 AM75 °FPassing clouds.6 mph100%29.95 "Hg5 mi
3:30 AM75 °FPassing clouds.6 mph94%29.95 "Hg5 mi
3:00 AM75 °FPassing clouds.7 mph94%29.95 "Hg4 mi
2:30 AM77 °FPartly cloudy.6 mph94%29.95 "Hg4 mi
2:00 AM77 °FLight rain. Partly cloudy.6 mph94%29.95 "Hg4 mi
Weather by CustomWeather, © 2014

See weather overviewHow to use our weather pages